Simultaneous Nadir Overpasses (SNOs) Predictions

Prediction of SNOs over PacNW region [( 10.00, 139.50) to ( 22.70, 165.60)] between AQUA and NPP Satellites:

Table of predicted SNOs over PacNW region for the next 30.0 days since TLE Epoch: 2/12/2016
Index Date (AQUA) Time (AQUA) AQUA Lat,Lon Date (NPP) Time (NPP) NPP Lat,Lon Distance(km) Time Diff (sec)
1 02/15/2016 15:09:59 22.61, 159.86 02/15/2016 15:12:29 23.19, 157.27 272.51 150
2 02/18/2016 03:31:53 22.68, 147.51 02/18/2016 03:28:36 22.34, 145.90 169.35 197
3 02/23/2016 15:59:34 22.61, 147.47 02/23/2016 16:03:02 23.26, 144.63 299.74 208
4 02/26/2016 02:42:33 22.65, 159.86 02/26/2016 02:39:04 27.26, 157.36 570.97 209
5 03/02/2016 15:10:11 22.64, 159.83 03/02/2016 15:12:07 23.17, 157.33 263.40 116
6 03/05/2016 03:32:02 22.65, 147.50 03/05/2016 03:28:33 23.52, 145.67 210.23 209
7 03/10/2016 15:59:37 22.64, 147.48 03/10/2016 16:02:38 23.26, 144.69 293.72 181




NCC Satellite Simultaneous Nadir Overpasses (SNOs) Prediction Service
